Terug naar catalogus

DB-CHARMS-ND

ActiefAmateurradioSSO
NORAD 68455·PAYLOAD·🇺🇸 United States

Gelanceerd Mar 30, 2026 vanaf Vandenberg Space Force Base

Loading…

Volgende Passages (komende 24 uur)

TLE

VersSource: Space-Track

Epoch: Sep 14, 2026, 07:54 UTC

1 68455U 26067AR  26257.32931688  .00003316  00000-0  16614-3 0  9995
2 68455  97.4682 214.4382 0007361 107.6739 252.5299 15.18042954 25459

Volg DB-CHARMS-ND in realtime met AllMySat

Download on the App Store